Terug naar catalogus

SL-12 R/B(2)

ActiefHEO
NORAD 25660·ROCKET BODY·🇷🇺 Russia

Gelanceerd Mar 21, 1999 vanaf Baikonur Cosmodrome

Loading…

Volgende Passages (komende 24 uur)

TLE

VersSource: Space-Track

Epoch: Sep 14, 2026, 14:13 UTC

1 25660U 99013D   26257.59243441 -.00000129  00000-0  00000+0 0  9997
2 25660  13.1212  93.9673 4596390 104.2493  38.1511  1.74923396175665

Volg SL-12 R/B(2) in realtime met AllMySat

Download on the App Store